DAL9937 KJAC-KMSP

Flight info

Callsign DAL9937
Flight time N/A
Altitude 39000
Route KICNE CZI RAP KUBKE UFFDA TORGY4
Aircraft A321/M-SDE3FGHIRWY/LB1

Departure

Time 2026-05-07 12:38
Airport Jackson Hole Airport (KJAC)

Arrival

Time N/A
Airport Minneapolis–Saint Paul International Airport / Wold–Chamberlain Field (KMSP)
Time Latitude Longitude Altitude Speed Heading
2026-05-07 12:28 43.60308 -110.73725 6428 ft 0 kts 109°
2026-05-07 12:31 43.60311 -110.73736 6427 ft 3 kts 109°
2026-05-07 12:31 43.60316 -110.73761 6425 ft 3 kts 127°
2026-05-07 12:32 43.60332 -110.73775 6426 ft 3 kts 189°
2026-05-07 12:32 43.60341 -110.73773 6426 ft 0 kts 192°
2026-05-07 12:32 43.60352 -110.73771 6428 ft 3 kts 159°
2026-05-07 12:32 43.60368 -110.73782 6428 ft 2 kts 150°
2026-05-07 12:33 43.60384 -110.73787 6431 ft 0 kts 198°
2026-05-07 12:34 43.60383 -110.73788 6431 ft 0 kts 198°
2026-05-07 12:34 43.60376 -110.73791 6431 ft 2 kts 198°
2026-05-07 12:34 43.60361 -110.73797 6427 ft 3 kts 198°
2026-05-07 12:34 43.60341 -110.73807 6427 ft 3 kts 199°
2026-05-07 12:35 43.60315 -110.73819 6429 ft 4 kts 199°
2026-05-07 12:35 43.60285 -110.73834 6428 ft 5 kts 199°
2026-05-07 12:35 43.60250 -110.73851 6425 ft 6 kts 200°
2026-05-07 12:35 43.60211 -110.73871 6425 ft 6 kts 200°
2026-05-07 12:36 43.60168 -110.73892 6423 ft 7 kts 200°
2026-05-07 12:36 43.60119 -110.73918 6425 ft 8 kts 200°
2026-05-07 12:36 43.60064 -110.73945 6421 ft 9 kts 200°
2026-05-07 12:36 43.60004 -110.73975 6419 ft 10 kts 198°
2026-05-07 12:37 43.59940 -110.74004 6419 ft 10 kts 200°
2026-05-07 12:37 43.59907 -110.74078 6418 ft 10 kts 272°
2026-05-07 12:37 43.59937 -110.74153 6420 ft 8 kts 328°
2026-05-07 12:37 43.59966 -110.74149 6421 ft 0 kts 21°
2026-05-07 12:38 43.60055 -110.74105 6421 ft 54 kts 19°
2026-05-07 12:38 43.60714 -110.73788 6441 ft 140 kts 19°
2026-05-07 12:38 43.61738 -110.73283 7001 ft 166 kts 18°
2026-05-07 12:38 43.62832 -110.72722 7908 ft 168 kts 18°
2026-05-07 12:39 43.63922 -110.72161 8851 ft 166 kts 17°
2026-05-07 12:39 43.65046 -110.71584 9595 ft 179 kts 15°
2026-05-07 12:39 43.66238 -110.70956 10311 ft 188 kts 16°
2026-05-07 12:39 43.67356 -110.69770 10734 ft 226 kts 54°
2026-05-07 12:40 43.67872 -110.67567 11223 ft 256 kts 77°
2026-05-07 12:40 43.68155 -110.64997 11735 ft 285 kts 80°
2026-05-07 12:40 43.68389 -110.62152 12408 ft 311 kts 82°
2026-05-07 12:40 43.68625 -110.59048 13135 ft 338 kts 81°
2026-05-07 12:41 43.68890 -110.55692 13817 ft 364 kts 80°
2026-05-07 12:41 43.69192 -110.52108 14515 ft 384 kts 80°
2026-05-07 12:41 43.69517 -110.48440 15491 ft 394 kts 79°
2026-05-07 12:41 43.69864 -110.44643 16488 ft 402 kts 79°
2026-05-07 12:42 43.70225 -110.40776 17427 ft 409 kts 78°
2026-05-07 12:42 43.70595 -110.36841 18378 ft 416 kts 78°
2026-05-07 12:42 43.70969 -110.32845 19150 ft 422 kts 78°
2026-05-07 12:42 43.71346 -110.28791 19925 ft 427 kts 78°
2026-05-07 12:43 43.71724 -110.24680 20704 ft 432 kts 78°
2026-05-07 12:43 43.72100 -110.20531 21420 ft 438 kts 78°
2026-05-07 12:43 43.72476 -110.16335 22142 ft 442 kts 78°
2026-05-07 12:43 43.72856 -110.12088 22853 ft 447 kts 78°
2026-05-07 12:44 43.73239 -110.07804 23533 ft 451 kts 78°
2026-05-07 12:44 43.73624 -110.03479 24065 ft 455 kts 78°
2026-05-07 12:44 43.74015 -109.99117 24572 ft 459 kts 77°
2026-05-07 12:44 43.74404 -109.94763 25083 ft 463 kts 77°
2026-05-07 12:45 43.74798 -109.90318 25591 ft 466 kts 77°
2026-05-07 12:45 43.75190 -109.85850 26080 ft 470 kts 77°
2026-05-07 12:45 43.75588 -109.81308 26569 ft 474 kts 77°
2026-05-07 12:45 43.75980 -109.76821 27086 ft 477 kts 77°
2026-05-07 12:46 43.76376 -109.72252 27623 ft 479 kts 77°
2026-05-07 12:46 43.76771 -109.67655 28076 ft 482 kts 77°
2026-05-07 12:46 43.77168 -109.63020 28546 ft 486 kts 77°
2026-05-07 12:46 43.77567 -109.58352 28974 ft 489 kts 77°
2026-05-07 12:47 43.77969 -109.53651 29340 ft 493 kts 77°
2026-05-07 12:47 43.78372 -109.48906 29783 ft 497 kts 77°
2026-05-07 12:47 43.78771 -109.44144 30229 ft 500 kts 77°
2026-05-07 12:47 43.79163 -109.39401 30763 ft 499 kts 77°
2026-05-07 12:48 43.79558 -109.34606 31260 ft 500 kts 77°
2026-05-07 12:48 43.79951 -109.29823 31794 ft 499 kts 77°
2026-05-07 12:48 43.80344 -109.25051 32359 ft 498 kts 76°
2026-05-07 12:48 43.80736 -109.20302 32961 ft 496 kts 76°
2026-05-07 12:49 43.81130 -109.15545 33585 ft 495 kts 75°
2026-05-07 12:49 43.81513 -109.10866 34147 ft 493 kts 75°
2026-05-07 12:49 43.81893 -109.06152 34661 ft 492 kts 75°
2026-05-07 12:49 43.82267 -109.01449 35241 ft 489 kts 76°
2026-05-07 12:50 43.82636 -108.96776 35781 ft 486 kts 76°
2026-05-07 12:50 43.83006 -108.92114 36278 ft 485 kts 76°
2026-05-07 12:50 43.83371 -108.87474 36748 ft 483 kts 77°
2026-05-07 12:50 43.83734 -108.82847 37200 ft 482 kts 77°
2026-05-07 12:51 43.84097 -108.78220 37650 ft 481 kts 77°
2026-05-07 12:51 43.84459 -108.73609 38114 ft 481 kts 77°
2026-05-07 12:51 43.84814 -108.69057 38552 ft 480 kts 77°
2026-05-07 12:51 43.85171 -108.64450 38897 ft 481 kts 78°
2026-05-07 12:52 43.85878 -108.55183 39013 ft 483 kts 78°
2026-05-07 12:52 43.86576 -108.45925 39021 ft 483 kts 78°
2026-05-07 12:53 43.87263 -108.36703 39023 ft 484 kts 78°
2026-05-07 12:53 43.87950 -108.27411 39016 ft 484 kts 78°
2026-05-07 12:54 43.88650 -108.18018 39008 ft 492 kts 78°
2026-05-07 12:54 43.89345 -108.08533 39022 ft 494 kts 78°
2026-05-07 12:55 43.90014 -107.99080 39029 ft 495 kts 78°
2026-05-07 12:55 43.90679 -107.89538 39057 ft 495 kts 79°
2026-05-07 12:56 43.91336 -107.80084 38996 ft 495 kts 79°
2026-05-07 12:56 43.91993 -107.70559 38988 ft 495 kts 79°
2026-05-07 12:57 43.92645 -107.61041 38981 ft 495 kts 79°
2026-05-07 12:57 43.93286 -107.51526 38999 ft 494 kts 79°
2026-05-07 12:58 43.93911 -107.42036 38990 ft 494 kts 79°
2026-05-07 12:58 43.94529 -107.32552 38974 ft 493 kts 80°
2026-05-07 12:59 43.95141 -107.23127 38977 ft 493 kts 80°
2026-05-07 12:59 43.95754 -107.13614 38956 ft 494 kts 80°
2026-05-07 13:00 43.96353 -107.04110 38927 ft 494 kts 80°
2026-05-07 13:00 43.96938 -106.94767 38908 ft 494 kts 80°
2026-05-07 13:01 43.97431 -106.86677 38881 ft 494 kts 80°
2026-05-07 13:01 43.97527 -106.85072 38879 ft 494 kts 80°